Weather History for Immokalee Regional Airport [I, FL

Change the Weather History Date:

Friday, March 21, 2014

  Actual Average (KFMY) Record (KFMY)
Temperature  
Mean Temperature 74 °F 70 °F  
Max Temperature 89 °F 81 °F 91 °F (1944)
Min Temperature 60 °F 60 °F 40 °F (1956)
Degree Days  
Heating Degree Days 0 1  
Month to date heating degree days 21  
Since 1 July heating degree days 281  
Cooling Degree Days 10 6  
Month to date cooling degree days 112  
Year to date cooling degree days 297  
Growing Degree Days 24 (Base 50)    
Moisture  
Dew Point 65 °F    
Average Humidity 62    
Maximum Humidity 100    
Minimum Humidity 40    
Precipitation  
Precipitation 0.00 in 0.10 in 1.81 in (1985)
Month to date precipitation 1.98  
Year to date precipitation 6.07  
Sea Level Pressure  
Sea Level Pressure 30.04 in    
Wind  
Wind Speed 5 mph (ENE)    
Max Wind Speed 15 mph    
Max Gust Speed 25 mph    
Visibility 7 miles    
Events      
T = Trace of Precipitation, MM = Missing Value Source: NWS Daily Summary

Daily Weather History Graph

Daily Weather History Graph

Search for Another Location

Airport:

Trip Planner

Search our weather history database for the weather conditions in past years. The results will help you decide how hot, cold, wet, or windy it might be!

Date:

Astronomy

Mar. 21, 2014 Rise Set
Actual Time 7:28 AM EDT 7:37 PM EDT
Civil Twilight 7:05 AM EDT 8:00 PM EDT
Nautical Twilight 6:38 AM EDT 8:27 PM EDT
Astronomical Twilight 6:11 AM EDT 8:54 PM EDT
Moon No Moon Rise 10:44 AM EDT (3/21)
Length of Visible Light 12h 55m
Length of Day
12h 08m
Waning Gibbous, 75% of the Moon is Illuminated
Mar 21
Waning Gibbous
Mar 23
Last Quarter
Mar 30
New
Apr 7
First Quarter
Apr 15
Full

Hourly Weather History & Observations

Time (EDT) Temp. Heat Index Dew Point Humidity Pressure Visibility Wind Dir Wind Speed Gust Speed Precip Events Conditions
12:15 AM 62.6 °F - - N/A% 30.05 in 5.0 mi WNW 5.8 mph - 0.00 in   Clear
12:35 AM 60.8 °F - - N/A% 30.04 in 6.0 mi WNW 4.6 mph - 0.00 in   Scattered Clouds
12:55 AM 60.8 °F - - N/A% 30.04 in 6.0 mi WNW 4.6 mph - 0.00 in   Scattered Clouds
1:15 AM 60.8 °F - - N/A% 30.04 in 5.0 mi Calm Calm - 0.00 in   Clear
1:35 AM 60.8 °F - - N/A% 30.03 in 5.0 mi WNW 5.8 mph - 0.00 in   Clear
1:55 AM 60.8 °F - - N/A% 30.04 in 5.0 mi WNW 4.6 mph - 0.00 in   Partly Cloudy
2:15 AM 60.8 °F - - N/A% 30.03 in 5.0 mi WNW 5.8 mph - 0.00 in   Partly Cloudy
2:35 AM 60.8 °F - - N/A% 30.02 in 5.0 mi NW 3.5 mph - 0.00 in   Clear
2:55 AM 60.8 °F - - N/A% 30.02 in 5.0 mi NW 4.6 mph - 0.00 in   Scattered Clouds
3:15 AM 60.8 °F - - N/A% 30.01 in 5.0 mi NW 4.6 mph - 0.00 in   Overcast
3:35 AM 60.8 °F - - N/A% 30.02 in 5.0 mi NW 4.6 mph - 0.00 in   Overcast
3:55 AM 62.6 °F - - N/A% 30.01 in 5.0 mi Calm Calm - 0.00 in   Overcast
4:15 AM 62.6 °F - - N/A% 30.00 in 5.0 mi NNW 3.5 mph - 0.00 in   Overcast
4:35 AM 62.6 °F - - N/A% 29.99 in 5.0 mi NNW 3.5 mph - 0.00 in   Overcast
4:55 AM 62.6 °F - - N/A% 29.99 in 5.0 mi Calm Calm - 0.00 in   Overcast
5:15 AM 64.4 °F - - N/A% 29.99 in 5.0 mi Calm Calm - 0.00 in   Overcast
5:35 AM 64.4 °F - - N/A% 30.00 in 5.0 mi Calm Calm - 0.00 in   Overcast
5:55 AM 64.4 °F - - N/A% 30.00 in 5.0 mi Calm Calm - 0.00 in   Overcast
6:15 AM 64.4 °F - - N/A% 30.01 in 5.0 mi Calm Calm - 0.00 in   Overcast
6:35 AM 64.4 °F - - N/A% 30.02 in 6.0 mi NNW 3.5 mph - 0.00 in   Overcast
6:55 AM 64.4 °F - - N/A% 30.02 in 5.0 mi Calm Calm - 0.00 in   Overcast
7:15 AM 66.2 °F - - N/A% 30.02 in 6.0 mi Calm Calm - 0.00 in   Overcast
7:35 AM 66.2 °F - - N/A% 30.02 in 5.0 mi Calm Calm - 0.00 in   Overcast
7:55 AM 66.2 °F - - N/A% 30.02 in 4.0 mi NNE 5.8 mph - 0.00 in   Overcast
8:15 AM 66.2 °F - - N/A% 30.03 in 3.0 mi NNE 6.9 mph - 0.00 in   Overcast
8:35 AM 66.2 °F - - N/A% 30.03 in 2.5 mi NE 5.8 mph - 0.00 in   Overcast
8:55 AM 68.0 °F - - N/A% 30.04 in 3.0 mi ENE 6.9 mph - 0.00 in   Overcast
9:15 AM 68.0 °F - - N/A% 30.05 in 5.0 mi East 5.8 mph - 0.00 in   Overcast
9:35 AM 71.6 °F - 71.6 °F 100% 30.06 in 6.0 mi East 6.9 mph - 0.00 in   Mostly Cloudy
9:55 AM 73.4 °F - 71.6 °F 94% 30.06 in 7.0 mi East 9.2 mph - 0.00 in   Partly Cloudy
10:15 AM 75.2 °F - 69.8 °F 83% 30.07 in 6.0 mi ENE 6.9 mph - 0.00 in   Clear
10:35 AM 77.0 °F - 68.0 °F 74% 30.08 in 8.0 mi ESE 10.4 mph - 0.00 in   Clear
10:55 AM 78.8 °F - 66.2 °F 65% 30.08 in 9.0 mi East 5.8 mph - 0.00 in   Clear
11:15 AM 80.6 °F 81.8 °F 62.6 °F 54% 30.08 in 8.0 mi ENE 8.1 mph - 0.00 in   Clear
11:35 AM 82.4 °F 83.4 °F 62.6 °F 51% 30.08 in 8.0 mi East 9.2 mph - 0.00 in   Partly Cloudy
11:55 AM 82.4 °F 83.9 °F 64.4 °F 54% 30.08 in 8.0 mi East 9.2 mph 16.1 mph 0.00 in   Clear
12:15 PM 82.4 °F 83.9 °F 64.4 °F 54% 30.08 in 8.0 mi ENE 12.7 mph - 0.00 in   Clear
12:35 PM 82.4 °F 84.6 °F 66.2 °F 58% 30.07 in 9.0 mi East 9.2 mph - 0.00 in   Scattered Clouds
12:55 PM 82.4 °F 84.6 °F 66.2 °F 58% 30.07 in 9.0 mi ESE 13.8 mph 21.9 mph 0.00 in   Scattered Clouds
1:15 PM 84.2 °F 85.6 °F 64.4 °F 51% 30.06 in 8.0 mi ESE 12.7 mph 21.9 mph 0.00 in   Partly Cloudy
1:35 PM 84.2 °F 85.6 °F 64.4 °F 51% 30.05 in 9.0 mi East 15.0 mph 20.7 mph 0.00 in   Clear
1:55 PM 84.2 °F 85.0 °F 62.6 °F 48% 30.05 in 8.0 mi ENE 15.0 mph 19.6 mph 0.00 in   Clear
2:15 PM 86.0 °F 86.6 °F 62.6 °F 45% 30.04 in 9.0 mi SE 13.8 mph 17.3 mph 0.00 in   Clear
2:35 PM 87.8 °F 88.5 °F 62.6 °F 43% 30.03 in 9.0 mi East 11.5 mph 18.4 mph 0.00 in   Clear
2:55 PM 87.8 °F 88.5 °F 62.6 °F 43% 30.03 in 8.0 mi East 12.7 mph 25.3 mph 0.00 in   Clear
3:15 PM 87.8 °F 87.6 °F 60.8 °F 40% 30.02 in 9.0 mi East 9.2 mph 16.1 mph 0.00 in   Partly Cloudy
3:35 PM 87.8 °F 88.5 °F 62.6 °F 43% 30.02 in 9.0 mi East 10.4 mph - 0.00 in   Clear
3:55 PM 89.6 °F 90.1 °F 62.6 °F 40% 30.01 in 9.0 mi East 8.1 mph 19.6 mph 0.00 in   Partly Cloudy
4:15 PM 87.8 °F 88.5 °F 62.6 °F 43% 30.00 in 8.0 mi ESE 6.9 mph - 0.00 in   Scattered Clouds
4:35 PM 84.2 °F 85.0 °F 62.6 °F 48% 30.00 in 8.0 mi SE 11.5 mph - 0.00 in   Scattered Clouds
4:55 PM 87.8 °F 88.5 °F 62.6 °F 43% 30.00 in 8.0 mi SE 10.4 mph 16.1 mph 0.00 in   Partly Cloudy
5:15 PM 87.8 °F 87.6 °F 60.8 °F 40% 30.00 in 10.0 mi SE 10.4 mph - 0.00 in   Partly Cloudy
5:35 PM 86.0 °F 86.1 °F 60.8 °F 43% 30.00 in 8.0 mi ESE 8.1 mph - 0.00 in   Mostly Cloudy
5:55 PM 82.4 °F 86.3 °F 69.8 °F 66% 30.01 in 8.0 mi ENE 12.7 mph - 0.00 in   Overcast
6:15 PM 82.4 °F 86.3 °F 69.8 °F 66% 30.01 in 8.0 mi ENE 5.8 mph - 0.00 in   Mostly Cloudy
6:35 PM 82.4 °F 83.4 °F 62.6 °F 51% 30.01 in 9.0 mi SE 9.2 mph - 0.00 in   Mostly Cloudy
6:55 PM 80.6 °F 81.8 °F 62.6 °F 54% 30.02 in 9.0 mi SE 8.1 mph - 0.00 in   Mostly Cloudy
7:15 PM 80.6 °F 81.5 °F 60.8 °F 51% 30.02 in 9.0 mi SE 6.9 mph - 0.00 in   Scattered Clouds
7:35 PM 78.8 °F - 60.8 °F 54% 30.02 in 9.0 mi SSE 5.8 mph - 0.00 in   Scattered Clouds
7:55 PM 75.2 °F - 59.0 °F 57% 30.03 in 10.0 mi SSE 5.8 mph - 0.00 in   Partly Cloudy
8:15 PM 73.4 °F - 60.8 °F 65% 30.03 in 10.0 mi Calm Calm - 0.00 in   Clear
8:35 PM 71.6 °F - 60.8 °F 69% 30.04 in 9.0 mi Calm Calm - 0.00 in   Partly Cloudy
8:55 PM 71.6 °F - 68.0 °F 88% 30.05 in 9.0 mi WSW 5.8 mph - 0.00 in   Partly Cloudy
9:15 PM 69.8 °F - 69.8 °F 100% 30.05 in 9.0 mi WSW 4.6 mph - 0.00 in   Clear
9:35 PM 69.8 °F - 69.8 °F 100% 30.06 in 10.0 mi WSW 4.6 mph - 0.00 in   Clear
9:55 PM 68.0 °F - 68.0 °F 100% 30.06 in 9.0 mi Calm Calm - 0.00 in   Clear
10:15 PM 68.0 °F - 68.0 °F 100% 30.07 in 9.0 mi Calm Calm - 0.00 in   Clear
10:35 PM 66.2 °F - 66.2 °F 100% 30.07 in 8.0 mi Calm Calm - 0.00 in   Clear
10:55 PM 64.4 °F - - N/A% 30.07 in 8.0 mi Calm Calm - 0.00 in   Clear
11:15 PM 64.4 °F - - N/A% 30.07 in 8.0 mi Calm Calm - 0.00 in   Clear
11:35 PM 64.4 °F - - N/A% 30.07 in 6.0 mi Calm Calm - 0.00 in   Partly Cloudy
11:55 PM 62.6 °F - - N/A% 30.07 in 5.0 mi Calm Calm - 0.00 in   Partly Cloudy